Starlink 3344

operational
NORAD ID: 51110 Int'l Des: 2022-005 Owner: SPXS Country: US Constellation: starlink
LEOCIRCULAR

About Starlink 3344

Description loading...

Live Position

Loading 3D Globe...

Upcoming Passes

Altitude History

Altitude vs Time

uPlot chart will show altitude changes over time

Two-Line Element Set

1 51110U 22005G 25302.87490575 .00005108 00000-0 33858-3 0 9998
2 51110 53.2153 156.3527 0001084 95.6966 264.4150 15.08862499209131
Epoch: Oct 29, 2025 • Age: 28 hours

Current Status

Altitude 546.9 km
Velocity 7.59 km/s
Sub-Earth Point -24.21°S, 63.22°W
Launch Date Jan 19, 2022
Age 3.7 years
Type internet

Technical Details

Classification Payload
Mass 297.00 kg
Dry Mass 275.00 kg
Total Mass 297.00 kg
Length 0.20 m
Diameter 2.80 m
Span 9.00 m
Shape Box + pan
Manufacturer SPXS
Bus Type Starlink
Phase Status In Orbit
Owner/State SPXS/US

Large Constellations

Loading constellations...